Precipitable_Water
0.49 0.55 0.53 0.38 0.22 0.24 0.21 0.22 0.26 0.25 0.31 0.41 0.48 0.46 0.42 0.53 0.47 0.37 1.03 1.23 1.42 1.46 1.56 1.56 1.49 1.46 1.49 1.58 1.59 1.61 1.61 1.55 1.52 1.56 1.51 1.44 1.45 1.34 1.24 1.15 1.20 1.23 1.16 1.07 1.05 1.06 1.04 0.97 0.97
0.47 0.51 0.44 0.33 0.22 0.19 0.20 0.25 0.23 0.28 0.34 0.49 0.53 0.56 0.51 0.46 0.75 0.89 1.02 1.32 1.48 1.53 1.59 1.60 1.52 1.53 1.56 1.57 1.59 1.61 1.56 1.50 1.47 1.56 1.55 1.44 1.38 1.28 1.20 1.15 1.18 1.14 1.02 0.97 0.98 0.98 0.96 0.92 0.89
0.44 0.47 0.33 0.28 0.24 0.19 0.19 0.26 0.27 0.32 0.37 0.45 0.48 0.64 0.61 0.54 0.82 0.98 1.26 1.39 1.51 1.57 1.70 1.59 1.64 1.59 1.54 1.58 1.55 1.57 1.57 1.50 1.45 1.49 1.49 1.38 1.33 1.26 1.21 1.18 1.19 1.08 0.94 0.94 0.95 0.93 0.92 0.94 0.89
0.44 0.38 0.36 0.27 0.22 0.26 0.24 0.27 0.30 0.33 0.45 0.50 0.56 0.47 0.69 0.87 0.89 1.12 1.35 1.38 1.42 1.54 1.64 1.63 1.50 1.52 1.51 1.60 1.58 1.54 1.54 1.51 1.51 1.48 1.47 1.26 1.28 1.20 1.18 1.24 1.14 1.05 1.05 1.05 1.00 0.95 0.84 0.84 0.81
0.45 0.35 0.23 0.23 0.25 0.28 0.27 0.30 0.32 0.33 0.41 0.46 0.54 0.46 0.54 0.80 1.07 1.18 1.24 1.35 1.36 1.49 1.59 1.60 1.61 1.55 1.51 1.52 1.54 1.55 1.56 1.50 1.49 1.46 1.37 1.30 1.14 1.14 1.26 1.25 1.14 1.14 1.18 1.12 0.97 0.88 0.82 0.80 0.78
0.32 0.33 0.21 0.21 0.25 0.28 0.29 0.32 0.33 0.38 0.42 0.48 0.50 0.55 0.63 0.96 1.01 1.17 1.29 1.32 1.40 1.49 1.61 1.58 1.56 1.53 1.51 1.50 1.51 1.49 1.52 1.58 1.52 1.46 1.37 1.17 1.08 1.22 1.24 1.12 1.05 1.09 1.11 1.11 0.98 0.88 0.79 0.77 0.77
0.29 0.26 0.20 0.23 0.25 0.25 0.27 0.38 0.33 0.34 0.40 0.46 0.64 0.54 0.73 0.88 1.08 1.15 1.23 1.35 1.37 1.49 1.56 1.57 1.59 1.56 1.49 1.52 1.53 1.51 1.60 1.63 1.61 1.44 1.41 1.16 1.14 1.23 1.18 1.06 1.01 1.10 1.10 1.07 1.00 0.88 0.86 0.82 0.79
0.36 0.32 0.22 0.24 0.23 0.21 0.27 0.33 0.39 0.37 0.38 0.64 0.74 0.55 0.60 0.86 1.07 1.14 1.21 1.29 1.35 1.40 1.51 1.56 1.61 1.61 1.62 1.59 1.57 1.58 1.62 1.69 1.62 1.50 1.33 1.23 1.15 1.20 1.13 1.01 1.01 1.09 1.11 1.07 1.02 0.93 0.90 0.85 0.82
0.40 0.27 0.20 0.21 0.25 0.23 0.29 0.29 0.39 0.49 0.47 0.59 0.72 0.76 0.87 1.00 1.04 1.03 1.06 1.16 1.30 1.39 1.45 1.51 1.58 1.61 1.65 1.63 1.71 1.70 1.69 1.65 1.54 1.47 1.38 1.19 1.20 1.18 1.05 0.99 1.04 1.10 1.09 1.07 1.02 0.94 0.91 0.87 0.85
0.33 0.25 0.22 0.28 0.30 0.26 0.30 0.30 0.33 0.37 0.44 0.50 0.63 0.85 0.94 0.98 0.88 0.89 1.00 1.05 1.22 1.25 1.39 1.48 1.49 1.59 1.59 1.70 1.69 1.63 1.56 1.55 1.48 1.50 1.36 1.22 1.13 1.07 0.97 1.03 1.08 1.08 1.13 1.10 1.03 0.95 0.92 0.86 0.85
0.32 0.24 0.26 0.30 0.32 0.33 0.32 0.32 0.41 0.37 0.37 0.48 0.54 0.69 0.82 0.85 0.81 0.94 1.03 1.10 1.19 1.28 1.39 1.45 1.48 1.51 1.53 1.53 1.53 1.57 1.54 1.47 1.44 1.50 1.31 1.22 1.12 1.07 0.99 1.02 1.08 1.15 1.15 1.09 1.03 0.96 0.91 0.85 0.86
0.29 0.30 0.29 0.30 0.32 0.34 0.31 0.36 0.34 0.40 0.41 0.58 0.67 0.76 0.82 0.76 0.78 0.89 0.98 1.00 1.14 1.20 1.27 1.33 1.43 1.50 1.60 1.57 1.58 1.57 1.53 1.55 1.50 1.40 1.27 1.11 1.02 0.99 0.96 0.95 1.02 1.02 1.10 1.07 1.03 0.95 0.85 0.86 0.81
0.31 0.30 0.29 0.30 0.32 0.32 0.34 0.31 0.33 0.35 0.50 0.64 0.71 0.78 0.80 0.74 0.77 0.83 0.88 0.97 1.04 1.07 1.11 1.24 1.40 1.51 1.55 1.51 1.54 1.55 1.47 1.42 1.41 1.38 1.18 1.00 0.92 0.88 0.94 0.95 0.95 0.95 0.98 0.95 0.93 0.86 0.86 0.82 0.81
0.33 0.33 0.32 0.32 0.30 0.32 0.29 0.31 0.37 0.37 0.50 0.58 0.66 0.73 0.78 0.70 0.74 0.79 0.78 0.85 0.91 0.97 1.06 1.18 1.44 1.44 1.52 1.51 1.52 1.51 1.49 1.42 1.40 1.34 1.13 1.01 0.93 0.94 0.92 0.96 0.94 0.91 0.90 0.90 0.86 0.87 0.87 0.82 0.81
0.35 0.31 0.31 0.29 0.29 0.28 0.35 0.25 0.30 0.39 0.50 0.52 0.61 0.72 0.74 0.66 0.73 0.76 0.75 0.79 0.86 0.90 1.02 1.15 1.45 1.38 1.43 1.49 1.47 1.48 1.45 1.47 1.40 1.36 1.23 1.05 1.02 0.98 0.96 0.93 0.92 0.94 0.92 0.90 0.93 0.97 0.96 0.89 0.85
0.34 0.34 0.26 0.25 0.35 0.36 0.35 0.22 0.35 0.44 0.47 0.48 0.59 0.70 0.72 0.65 0.66 0.75 0.74 0.77 0.84 0.85 0.97 1.11 1.26 1.34 1.38 1.41 1.44 1.49 1.51 1.48 1.46 1.38 1.29 1.12 1.10 1.03 1.00 0.96 0.96 1.03 1.03 1.01 1.00 0.97 0.94 0.92 0.86
0.32 0.26 0.27 0.22 0.30 0.35 0.37 0.25 0.37 0.47 0.47 0.48 0.56 0.67 0.69 0.67 0.66 0.72 0.73 0.78 0.79 0.83 0.91 1.00 1.20 1.37 1.44 1.47 1.48 1.48 1.49 1.49 1.50 1.37 1.30 1.19 1.07 1.08 1.05 1.01 1.04 1.11 1.09 1.08 1.06 1.03 1.00 0.94 0.89
0.26 0.26 0.27 0.23 0.26 0.32 0.33 0.33 0.35 0.41 0.46 0.49 0.54 0.63 0.67 0.65 0.64 0.73 0.73 0.77 0.78 0.85 0.89 0.96 1.15 1.36 1.43 1.42 1.43 1.46 1.43 1.45 1.45 1.43 1.34 1.21 1.10 1.11 1.13 1.12 1.10 1.13 1.11 1.10 1.09 1.05 1.06 1.02 0.96
0.30 0.27 0.25 0.28 0.29 0.27 0.29 0.34 0.36 0.37 0.40 0.44 0.48 0.56 0.65 0.66 0.73 0.73 0.73 0.73 0.73 0.78 0.84 0.90 1.05 1.30 1.35 1.35 1.32 1.33 1.27 1.30 1.33 1.34 1.31 1.26 1.16 1.10 1.13 1.14 1.13 1.11 1.07 1.06 1.08 1.07 1.05 1.04 1.04
0.32 0.28 0.27 0.30 0.30 0.27 0.28 0.32 0.37 0.37 0.36 0.41 0.45 0.50 0.59 0.69 0.75 0.72 0.71 0.68 0.66 0.71 0.78 0.85 0.93 1.13 1.24 1.30 1.25 1.27 1.29 1.26 1.29 1.31 1.41 1.37 1.19 1.13 1.13 1.11 1.12 1.09 1.08 1.09 1.03 1.04 1.00 1.03 1.07
0.35 0.31 0.30 0.28 0.29 0.29 0.29 0.30 0.34 0.35 0.36 0.40 0.45 0.51 0.58 0.64 0.71 0.75 0.66 0.68 0.64 0.65 0.72 0.77 0.88 0.97 1.08 1.16 1.25 1.27 1.30 1.27 1.27 1.26 1.33 1.35 1.24 1.17 1.14 1.12 1.11 1.10 1.12 1.05 1.07 1.07 1.03 0.94 1.02
0.32 0.39 0.35 0.31 0.27 0.18 0.32 0.22 0.31 0.32 0.27 0.30 0.36 0.45 0.50 0.60 0.72 0.77 0.68 0.64 0.63 0.61 0.71 0.77 0.82 0.88 0.96 1.02 1.04 1.12 1.14 1.13 1.18 1.22 1.30 1.34 1.30 1.19 1.17 1.15 1.15 1.14 1.16 1.12 1.11 1.14 1.06 0.98 0.89
0.36 0.40 0.37 0.34 0.29 0.26 0.26 0.25 0.31 0.34 0.25 0.25 0.28 0.37 0.45 0.54 0.64 0.68 0.69 0.64 0.68 0.63 0.65 0.72 0.78 0.82 0.88 0.93 0.97 0.99 1.02 1.09 1.23 1.27 1.24 1.21 1.21 1.22 1.20 1.17 1.15 1.21 1.12 1.16 1.16 1.12 0.98 1.02 0.95
0.43 0.38 0.36 0.36 0.32 0.22 0.29 0.30 0.29 0.31 0.27 0.28 0.30 0.34 0.39 0.48 0.58 0.67 0.75 0.71 0.68 0.69 0.67 0.71 0.74 0.76 0.83 0.84 0.87 0.88 0.91 0.96 1.01 1.08 1.06 1.10 1.16 1.19 1.23 1.14 1.16 1.15 1.10 1.15 1.12 1.04 1.02 0.96 0.95
0.40 0.37 0.28 0.26 0.24 0.22 0.35 0.32 0.31 0.38 0.35 0.31 0.32 0.34 0.39 0.47 0.55 0.63 0.69 0.64 0.64 0.67 0.66 0.67 0.69 0.72 0.79 0.81 0.82 0.85 0.88 0.90 0.90 0.93 0.94 0.94 0.97 1.00 1.05 1.09 1.07 1.06 1.09 1.06 1.01 0.98 0.96 0.96 0.94
0.39 0.37 0.30 0.22 0.23 0.26 0.37 0.29 0.32 0.42 0.40 0.36 0.37 0.41 0.43 0.46 0.52 0.59 0.65 0.69 0.65 0.67 0.71 0.69 0.67 0.70 0.78 0.80 0.80 0.83 0.87 0.89 0.91 0.92 0.92 0.90 0.92 0.94 0.97 1.00 1.01 1.01 1.02 1.04 1.03 0.99 0.97 0.95 0.94
0.39 0.35 0.42 0.33 0.34 0.29 0.32 0.36 0.41 0.43 0.42 0.43 0.40 0.40 0.40 0.44 0.50 0.58 0.66 0.70 0.71 0.64 0.67 0.70 0.69 0.70 0.76 0.78 0.80 0.81 0.83 0.86 0.88 0.91 0.95 0.97 0.94 0.89 0.90 0.95 0.96 0.98 1.00 1.00 0.99 0.95 0.93 0.91 0.94
0.42 0.45 0.35 0.36 0.24 0.23 0.28 0.32 0.32 0.36 0.39 0.39 0.35 0.38 0.42 0.45 0.52 0.58 0.64 0.69 0.72 0.71 0.74 0.77 0.80 0.79 0.80 0.84 0.84 0.81 0.81 0.84 0.87 0.91 0.93 0.96 0.99 0.96 0.92 0.91 0.90 0.91 0.93 0.94 0.94 0.92 0.93 0.92 1.01
0.37 0.37 0.39 0.38 0.34 0.26 0.24 0.28 0.41 0.41 0.43 0.42 0.40 0.42 0.46 0.48 0.51 0.55 0.62 0.71 0.75 0.76 0.76 0.79 0.83 0.85 0.86 0.91 0.95 0.94 0.89 0.86 0.86 0.87 0.90 0.93 0.98 1.02 1.01 1.00 0.96 0.95 0.95 0.95 0.94 0.92 0.94 1.01 1.13
0.43 0.41 0.40 0.33 0.31 0.34 0.32 0.30 0.46 0.47 0.49 0.48 0.45 0.43 0.47 0.50 0.52 0.56 0.61 0.67 0.72 0.74 0.76 0.79 0.84 0.86 0.89 0.92 0.93 0.97 0.99 0.96 0.94 0.91 0.90 0.91 0.89 0.94 0.94 0.96 0.98 0.95 0.92 0.93 0.93 0.97 1.09 1.17 1.15
Wind_Speed
12 12 12 11 10 8 8 9 10 11 10 10 12 12 13 15 15 16 15 14 14 17 20 24 26 24 23 23 23 22 21 20 21 23 21 22 19 18 16 16 15 14 12 12 11 11 10 10 9
11 12 11 10 8 8 8 9 10 11 10 11 12 13 14 14 14 15 14 13 12 16 19 22 24 26 24 23 24 23 21 21 21 25 23 24 21 18 18 17 16 14 13 13 12 11 11 10 9
11 11 11 9 8 8 9 9 10 10 12 11 11 13 14 13 13 13 13 13 13 15 18 20 20 24 24 25 23 23 22 21 21 25 27 25 22 20 19 17 16 15 14 13 13 12 10 10 9
11 11 10 9 9 9 9 10 10 12 10 10 12 15 14 14 13 13 13 13 14 16 17 17 19 21 20 22 22 22 22 21 22 24 27 26 25 23 20 18 17 16 15 14 13 12 10 11 10
10 10 9 9 10 10 10 11 11 11 11 10 11 12 13 13 13 13 13 14 15 16 17 17 18 22 22 24 22 22 22 22 22 25 28 24 25 24 22 20 18 17 16 15 13 12 11 10 10
10 10 9 10 9 9 10 9 9 11 11 11 11 12 12 13 12 12 11 11 13 15 18 19 20 22 26 25 25 24 23 23 23 25 28 26 27 25 23 21 19 17 17 15 13 13 11 10 10
11 9 10 9 9 9 9 9 11 12 12 12 11 12 13 13 12 11 11 11 12 15 17 19 22 24 27 28 27 27 25 25 27 28 28 29 28 26 23 22 20 19 18 16 14 13 11 10 9
10 9 9 10 8 9 10 11 12 12 12 11 11 12 13 14 12 13 12 11 11 15 17 18 21 24 27 27 28 28 27 27 28 31 29 29 30 27 24 23 21 20 19 17 15 12 11 10 9
11 10 11 10 9 9 10 12 11 11 11 11 11 13 13 14 13 12 11 10 9 9 11 15 19 23 30 30 28 27 28 29 32 29 28 31 30 27 27 23 22 21 19 17 15 12 11 10 10
11 11 12 10 9 11 13 13 11 11 11 12 13 12 13 12 11 11 9 8 7 8 9 11 14 14 22 29 27 28 27 32 33 27 30 28 29 29 27 25 23 22 19 18 15 14 12 10 9
12 13 12 11 13 12 13 13 11 11 12 13 12 11 12 10 9 9 6 6 7 8 9 10 8 6 14 24 24 22 27 29 30 30 28 29 31 31 28 26 23 22 20 18 16 14 12 10 9
13 15 14 13 13 12 13 13 13 12 13 11 11 11 9 9 8 7 5 5 6 6 6 9 8 11 14 20 21 17 20 27 29 28 28 29 31 33 30 26 24 22 21 19 17 14 13 10 10
15 15 14 16 15 15 14 15 14 14 13 11 10 9 9 8 6 5 5 4 4 6 7 8 11 12 15 17 19 19 19 22 29 28 29 30 32 32 29 26 25 23 21 19 17 15 13 11 11
13 16 16 16 17 16 16 14 12 11 11 11 10 8 7 6 5 4 5 5 6 6 6 7 15 14 17 18 18 19 20 22 26 28 29 31 31 30 28 26 24 22 21 19 18 15 13 12 12
15 15 16 16 15 15 12 13 12 14 12 11 10 8 6 6 5 5 4 5 5 5 4 3 14 15 17 19 20 19 22 24 26 26 27 31 31 28 27 26 24 23 21 20 18 15 13 13 12
14 14 14 11 8 8 7 9 11 10 10 10 10 9 8 7 6 6 5 4 5 5 4 4 9 15 21 19 22 22 22 26 28 26 27 29 30 29 28 26 24 22 21 20 18 15 13 13 13
14 14 14 12 11 8 9 11 8 9 9 10 10 9 9 8 8 7 6 5 4 5 4 5 7 16 20 19 21 23 24 24 27 29 28 30 31 30 28 26 25 22 22 21 18 16 15 14 13
17 15 14 15 12 11 11 15 14 11 9 11 11 10 10 10 9 7 7 6 5 5 4 4 5 16 19 18 20 21 22 26 26 29 29 31 31 31 28 27 25 24 22 21 19 18 16 15 14
17 16 14 13 14 14 14 14 16 13 12 13 12 12 12 11 9 8 7 7 6 5 4 3 4 12 19 22 21 22 24 25 26 29 30 30 31 31 30 28 27 26 24 23 21 19 18 17 16
19 17 17 17 15 16 17 17 17 15 14 13 14 15 14 12 11 10 9 8 7 6 4 4 5 8 12 19 20 21 24 25 28 28 31 31 32 31 30 29 28 27 25 24 23 21 19 18 18
23 24 20 19 15 16 16 16 15 14 13 14 13 14 15 15 14 13 11 9 8 7 5 4 5 8 10 11 14 19 23 24 28 29 30 32 32 32 30 29 28 28 26 26 24 23 21 19 18
25 22 22 19 16 15 13 14 13 16 16 13 14 13 14 15 15 14 13 11 10 9 7 6 6 8 9 10 12 13 17 22 26 30 29 32 32 30 30 30 28 27 26 26 24 22 21 19 19
21 18 21 20 18 17 17 15 11 10 12 13 13 14 14 14 15 15 14 13 11 10 9 8 8 9 9 10 11 12 15 15 20 25 28 31 34 32 32 31 30 27 27 25 24 22 22 21 20
19 16 14 15 16 18 16 16 13 12 12 12 13 13 15 15 15 15 14 14 13 12 11 10 10 10 10 11 11 12 14 15 17 20 22 23 26 28 29 28 28 27 28 26 24 24 24 24 24
22 17 15 15 17 18 13 16 19 15 17 15 15 13 13 14 15 16 16 15 14 14 13 13 12 12 11 11 12 13 14 15 17 19 20 21 23 24 26 27 26 28 28 27 26 25 25 26 26
25 25 19 18 17 15 14 16 14 12 12 12 11 12 11 14 15 16 19 17 16 16 16 15 14 14 14 13 13 14 14 15 16 19 19 21 23 23 24 26 27 29 30 30 29 28 28 28 29
20 23 23 18 16 15 16 16 16 15 16 13 12 12 13 14 16 17 18 20 18 18 17 17 16 16 16 17 16 16 16 17 17 18 19 21 23 24 25 26 27 29 31 32 32 31 31 31 30
24 20 17 19 19 22 18 17 17 11 14 14 14 13 13 13 15 17 19 21 20 19 19 19 18 18 18 18 19 19 19 19 19 20 21 22 23 26 27 29 30 31 32 32 32 33 33 33 32
20 23 20 19 20 21 21 19 17 16 13 12 12 14 13 13 15 15 17 20 21 20 21 21 21 20 20 21 21 22 22 23 23 23 24 24 26 27 29 30 32 33 33 33 34 34 35 36 35
16 17 23 22 23 20 20 24 19 17 16 17 16 15 15 14 15 15 15 17 20 21 22 22 22 23 24 25 25 25 25 25 26 26 26 27 28 30 32 33 35 35 34 36 36 37 36 37 38
Wind_Direction
301 303 304 306 295 305 299 298 298 298 299 299 297 294 294 292 289 295 295 280 257 233 223 221 224 226 218 209 207 208 208 206 205 201 195 193 192 188 186 182 179 178 176 172 164 160 158 154 153
301 302 304 301 300 302 302 299 293 289 298 306 299 299 297 295 291 292 292 277 255 234 225 222 224 218 211 206 209 207 208 208 207 202 199 193 193 190 186 181 177 175 174 171 166 162 163 160 156
300 303 299 301 302 295 293 290 293 299 297 297 304 303 304 301 296 290 289 269 253 236 221 219 216 207 208 206 208 205 208 210 205 202 199 196 192 187 182 179 176 173 172 168 166 165 164 163 160
297 300 298 291 292 293 289 294 295 303 307 303 307 303 300 299 299 290 283 270 249 235 221 219 223 208 196 198 204 206 210 207 207 200 198 196 195 191 186 182 178 173 170 167 169 169 165 162 160
295 297 292 286 291 295 293 292 294 297 305 305 309 307 305 306 300 295 280 271 247 236 226 221 216 212 209 208 209 212 210 209 201 199 194 198 194 187 183 180 177 176 175 173 170 168 165 164 163
288 290 287 277 285 292 297 293 295 295 299 304 306 310 310 312 306 299 289 275 250 236 226 223 221 220 218 218 218 214 210 202 199 195 192 191 186 184 181 180 178 178 175 175 171 167 165 164 164
277 282 281 274 281 295 296 298 298 297 293 298 301 305 313 316 307 300 292 281 260 238 232 228 230 227 221 218 217 214 212 212 206 195 192 188 186 182 181 179 180 177 175 173 170 167 166 168 169
271 278 273 267 270 291 299 299 301 297 293 298 296 299 308 316 309 299 287 282 267 245 237 236 233 230 219 218 219 218 214 207 198 192 190 188 187 186 184 180 179 177 176 175 172 171 172 172 169
264 270 271 266 256 288 301 305 303 303 294 297 292 301 306 310 308 301 289 277 269 243 240 236 240 240 233 221 213 209 202 196 190 185 188 186 186 185 182 181 180 180 180 178 177 176 172 170 170
255 263 263 256 263 291 301 301 298 295 293 294 294 299 310 308 310 306 292 268 252 248 239 246 262 272 212 208 204 200 195 188 185 187 183 185 188 186 183 181 181 182 184 182 181 177 175 176 180
251 260 259 258 268 286 300 300 295 293 292 293 297 299 308 307 310 315 293 262 255 255 251 256 253 200 171 180 188 189 188 191 191 189 194 194 190 187 185 182 183 184 183 184 182 182 189 190 197
255 259 259 265 270 282 294 299 291 278 293 303 302 301 305 306 308 314 302 276 263 259 252 253 236 200 181 179 182 179 181 188 185 190 191 191 188 188 184 185 186 186 188 188 193 198 196 200 201
254 263 259 263 270 278 287 287 287 278 280 290 301 300 298 302 306 307 298 283 269 267 275 259 220 200 191 185 188 184 181 183 189 187 186 185 182 181 183 186 187 190 192 193 195 196 201 206 205
257 260 265 270 272 274 280 286 283 286 280 280 287 289 292 291 292 301 294 280 283 283 281 283 207 207 199 191 189 188 185 177 178 181 183 183 187 188 188 189 190 192 194 196 197 202 208 211 211
258 265 272 269 274 277 272 277 269 285 277 271 272 279 278 277 275 291 295 286 289 294 279 265 204 208 206 197 192 190 186 185 183 181 182 184 183 188 190 190 192 195 197 198 200 204 210 216 217
255 260 265 265 255 280 262 282 293 302 273 265 262 266 263 269 268 282 287 287 291 299 276 251 226 210 205 204 197 194 194 189 190 190 190 189 192 192 191 193 195 197 200 199 203 211 216 219 222
252 257 255 265 264 257 265 284 294 304 284 270 262 259 259 263 270 273 266 273 285 292 279 258 236 209 198 201 200 201 201 198 197 197 195 195 194 195 197 199 200 203 201 206 211 217 220 223 225
240 248 254 256 256 259 262 273 284 291 281 271 262 259 256 256 261 261 258 267 277 287 280 264 228 196 195 196 204 208 206 202 203 197 199 199 200 200 202 204 205 206 207 213 218 221 227 228 229
242 245 251 258 256 264 266 272 279 286 279 272 258 255 253 253 255 254 257 258 265 271 267 247 209 202 208 209 210 212 209 207 203 204 202 202 205 205 207 207 210 212 216 220 226 225 228 233 233
241 244 251 266 267 258 268 274 278 279 278 266 261 251 250 246 250 249 248 249 250 253 250 231 206 191 197 205 214 212 208 211 211 211 210 209 206 207 210 213 215 218 222 230 227 226 232 235 233
239 243 247 254 269 265 272 272 275 281 276 266 263 256 249 246 242 239 239 240 239 237 233 217 197 189 191 197 205 212 214 215 212 210 212 213 209 211 214 216 220 222 232 225 225 229 233 235 235
240 243 247 253 259 265 271 277 271 277 278 270 260 252 247 245 238 237 236 233 230 227 223 213 204 197 195 193 197 198 201 215 214 211 212 209 208 214 218 217 220 226 224 222 225 228 232 233 237
242 236 237 245 253 262 260 268 273 277 276 272 263 254 249 244 236 232 229 227 225 220 218 212 207 202 198 197 197 197 202 198 198 205 211 214 216 221 220 221 224 225 222 221 224 229 234 237 243
237 230 239 245 249 255 248 255 269 264 266 272 265 261 252 242 235 229 227 224 223 219 214 211 209 208 204 202 199 196 194 194 195 199 199 205 210 212 214 217 217 220 217 223 229 234 239 245 249
224 228 248 250 244 253 251 244 256 269 272 267 268 268 259 240 232 225 221 222 220 217 216 216 213 211 208 206 203 202 202 201 202 202 203 204 206 211 214 216 220 219 221 227 233 239 245 250 254
228 228 233 244 247 256 243 248 252 257 271 274 259 257 267 242 232 228 224 222 221 219 218 218 217 217 216 215 213 211 208 207 207 207 212 214 214 216 218 222 223 225 229 235 239 245 251 256 258
223 225 230 244 248 255 247 253 261 264 271 262 260 267 269 251 239 236 229 223 222 221 220 220 222 223 223 223 221 220 220 219 219 219 221 222 224 226 228 230 231 233 236 241 244 249 253 257 259
226 220 227 235 243 249 250 254 251 257 270 265 261 264 273 261 248 238 231 226 224 225 225 225 226 227 228 228 229 230 229 229 229 230 231 233 235 236 237 238 239 240 242 243 246 251 255 257 259
223 227 233 236 241 249 256 254 251 249 255 263 265 255 270 271 246 240 235 228 227 229 229 230 231 233 233 234 235 236 236 236 236 238 239 241 243 245 244 245 243 243 245 247 250 255 257 259 258
227 230 236 241 240 247 256 254 257 254 254 265 273 263 270 264 253 240 234 230 230 231 233 236 237 240 242 242 240 240 240 240 242 242 245 248 249 250 251 249 247 244 248 250 253 256 260 259 257